Tracking 30072 objects as of 15-Jan-2025
HD Live streaming from Space Station
objects crossing your sky now

GAOFEN DUOMO (GFDM)

Track GAOFEN DUOMO (GFDM) now!
10-day predictions


NORAD ID: 45856
Int'l Code: 2020-042A
Perigee: 637.7 km
Apogee: 656.1 km
Inclination: 97.8 °
Period: 97.5 minutes
Semi major axis: 7017 km
RCS: Unknown
Launch date: July 3, 2020
Source: People's Republic of China (PRC)
Launch site: Taiyaun Space Center, China (TSC)
Your satellite tracking list
Your tracking list is empty




NASA's NSSDC Master Catalog

Two Line Element Set (TLE):
1 45856U 20042A   25014.89101981  .00000848  00000-0  12823-3 0  9994
2 45856  97.8450  86.4740 0013116 326.5127  33.5253 14.76705228244519
Source of the keplerian elements: AFSPC